Location: Cactus School
(34.5700°N, 118.0931°W)
Time: 08:50:50
(UTC-07:00)

S-56A Canister/Altair - Pass Details

Date: 14 April 2024
Orbit: 638 x 2488 km, 38.9° (Epoch: 29 May)

Event Time Altitude Azimuth Distance (km) Brightness Sun altitude
Rises 23:04:31 0° 288° (WNW) 4,414 12.0 -38.7°
Reaches altitude 10° 23:07:05 10° 289° (WNW) 3,653 11.5 -39.0°
Maximum altitude 23:17:03 85° 18° (NNE) 1,978 9.3 -40.1°
Enters shadow 23:17:27 84° 62° (ENE) 1,999 9.3 -40.1°
Drops below altitude 10° 23:31:20 10° 109° (ESE) 5,037 - -41.5°
Sets 23:35:31 0° 110° (ESE) 6,129 - -41.9°
